Flag Weather past 2 weeks in Pond Inlet, Nunavut Territory, Canada

Now
-9 °F

Light snow. Broken clouds.


Feels Like: -19 °F
Forecast: -7 / 11 °F
Wind: 3 mph from South

Location: Pond Inlet

Current Time: Nov 23, 2014 at 3:24:52 PM

Latest Report: Nov 23, 2014 at 3:00 PM


Visibility: 9 mi

Pressure: 29.49 "Hg

Humidity: 77%

Dew point: -15 °F

Location of Pond InletLocation

Historic Weather in Pond Inlet — Graph

°F

Pond Inlet temperature yesterday

Maximum temperature yesterday: -15 °F (at 12:00 AM)
Minimum temperature yesterday: -20 °F (at 8:00 AM)
Average temperature yesterday: -17 °F

Past Weeks' High & Low Weather Summary

 TemperatureHumidityPressure
High10 °F (Nov 8, 2:00 PM)92% (Nov 10, 2:01 AM)30.32 "Hg (Nov 10, 2:01 AM)
Low-20 °F (Nov 22, 8:00 AM)65% (Nov 12, 2:00 AM)29.21 "Hg (Nov 21, 1:00 AM)
Average-5 °F81%29.82 "Hg
* Reported Nov 8 2:00 PM — Nov 23 2:00 PM, Pond Inlet, Weather by CustomWeather, © 2014

Note: Actual official high and low records may vary slightly from our data, if they occured in-between our weather recording intervals... More about our weather records

Advertising

Pond Inlet weather history for previous 24 hours

 ConditionsComfort  
Time TempWeatherWind HumidityBarometerVisibility
2:00 PM
Nov 23
-9 °FLight snow. Mostly cloudy.3 mph84%29.50 "Hg9 mi
1:00 PM-9 °FOvercast.2 mph77%29.52 "Hg9 mi
12:00 PM-9 °FLight snow. Overcast.5 mph77%29.53 "Hg9 mi
11:00 AM-8 °FLight snow. Mostly cloudy.7 mph77%29.52 "Hg9 mi
10:04 AM-9 °FMostly cloudy.6 mph84%29.53 "Hg9 mi
9:00 AM-9 °FOvercast.5 mph77%29.54 "Hg9 mi
8:00 AM-11 °FPartly sunny.6 mph76%29.56 "Hg9 mi
7:00 AM-11 °FOvercast.5 mph84%29.56 "Hg9 mi
6:00 AM-13 °FPartly sunny.6 mph76%29.56 "Hg9 mi
5:00 AM-11 °FOvercast.5 mph76%29.57 "Hg9 mi
4:00 AM-13 °FExtremely cold.5 mph83%29.57 "Hg9 mi
3:00 AM-15 °FPartly cloudy.6 mph76%29.57 "Hg9 mi
2:00 AM-15 °FPassing clouds.6 mph76%29.57 "Hg9 mi
1:00 AM-13 °FPassing clouds.5 mph76%29.56 "Hg9 mi
12:00 AM-13 °FExtremely cold.5 mph83%29.57 "Hg9 mi
10:00 PM
Nov 22
-17 °FPassing clouds.6 mph76%29.58 "HgN/A
9:00 PM-15 °FPassing clouds.5 mph76%29.58 "Hg9 mi
8:00 PM-17 °FPassing clouds.5 mph83%29.58 "Hg9 mi
7:00 PM-17 °FPartly cloudy.6 mph83%29.58 "Hg9 mi
6:00 PM-18 °FSunny.5 mph75%29.58 "Hg9 mi
5:00 PM-18 °FScattered clouds.6 mph75%29.58 "Hg15 mi
4:00 PM-18 °FPartly sunny.7 mph83%29.58 "Hg15 mi
3:00 PM-18 °FScattered clouds.6 mph75%29.58 "Hg15 mi
Weather by CustomWeather, © 2014

See weather overviewHow to use our weather pages